Bismarck, ND

2:32 AM CST on November 22, 2017 (GMT -0600)
Bismarck Municipal

Weather History for KBIS - August, 2012

Change the Weather History Date:

Wednesday, August 1, 2012

  Actual Average Record
Temperature  
Mean Temperature 71 °F 72 °F  
Max Temperature 81 °F 86 °F 105 °F (1900)
Min Temperature 60 °F 58 °F 40 °F (1968)
Degree Days  
Heating Degree Days 0 0  
Month to date heating degree days 0 0  
Since 1 June heating degree days 33 110  
Since 1 July heating degree days 0 17  
Cooling Degree Days 6 7  
Month to date cooling degree days 6 7  
Year to date cooling degree days 454 311  
Since 1 June cooling degree days 449 294  
Growing Degree Days 22 (Base 50)    
Moisture  
Dew Point 59 °F    
Average Humidity 60    
Maximum Humidity 84    
Minimum Humidity 36    
Precipitation  
Precipitation T in 0.08 in 2.92 in (1915)
Month to date precipitation T 0.08  
Year to date precipitation 9.80 11.61  
Snow  
Snow 0.00 in - - ()
Month to date snowfall 0.0  
Since 1 June snowfall 0.0  
Snow Depth 0.00 in    
Sea Level Pressure  
Sea Level Pressure 29.90 in    
Wind  
Wind Speed 6 mph (North)    
Max Wind Speed 17 mph    
Max Gust Speed 22 mph    
Visibility 10 miles    
Events      
T = Trace of Precipitation, MM = Missing Value Source: NWS Daily Summary

Daily Weather History Graph

Daily Weather History Graph

Search for Another Location

Airport or City:

Trip Planner

Search our weather history database for the weather conditions in past years. The results will help you decide how hot, cold, wet, or windy it might be!

Date:

Astronomy

Aug. 01, 2012 Rise Set
Actual Time 6:23 AM CDT 9:14 PM CDT
Civil Twilight 5:48 AM CDT 9:49 PM CDT
Nautical Twilight 5:03 AM CDT 10:33 PM CDT
Astronomical Twilight 4:10 AM CDT 11:26 PM CDT
Moon 8:40 PM CDT (8/1) 5:57 AM CDT (8/1)
Length of Visible Light 16h 00m
Length of Day
14h 50m
Full, 100% of the Moon is Illuminated
Aug 1
Full
Aug 1
Full
Aug 9
Last Quarter
Aug 17
New
Aug 24
First Quarter

Hourly Weather History & Observations

Time (CDT) Temp. Heat Index Dew Point Humidity Pressure Visibility Wind Dir Wind Speed Gust Speed Precip Events Conditions
12:52 AM 75.2 °F - 66.2 °F 73% 29.85 in 10.0 mi Calm Calm - N/A   Clear
1:52 AM 77.0 °F - 66.0 °F 69% 29.82 in 10.0 mi NW 5.8 mph - N/A   Partly Cloudy
2:52 AM 73.9 °F - 64.9 °F 73% 29.85 in 10.0 mi Calm Calm - N/A   Clear
3:52 AM 75.0 °F - 62.1 °F 64% 29.86 in 10.0 mi North 9.2 mph - N/A   Clear
4:52 AM 72.0 °F - 62.1 °F 71% 29.86 in 10.0 mi NNE 3.5 mph - N/A   Clear
5:52 AM 68.0 °F - 62.1 °F 81% 29.90 in 10.0 mi NW 9.2 mph - N/A   Clear
6:52 AM 68.0 °F - 61.0 °F 78% 29.88 in 10.0 mi North 5.8 mph - N/A   Clear
7:52 AM 69.1 °F - 60.1 °F 73% 29.88 in 10.0 mi North 4.6 mph - N/A   Clear
8:52 AM 70.0 °F - 60.1 °F 71% 29.90 in 10.0 mi NNE 5.8 mph - N/A   Clear
9:52 AM 73.9 °F - 61.0 °F 64% 29.89 in 10.0 mi NNE 6.9 mph - N/A   Clear
10:52 AM 75.9 °F - 59.0 °F 56% 29.92 in 10.0 mi North 10.4 mph - N/A   Clear
11:52 AM 75.9 °F - 57.9 °F 54% 29.92 in 10.0 mi North 17.3 mph 21.9 mph N/A   Clear
12:52 PM 73.9 °F - 57.0 °F 55% 29.93 in 10.0 mi Variable 3.5 mph - N/A   Scattered Clouds
1:52 PM 75.9 °F - 57.0 °F 52% 29.97 in 10.0 mi NE 4.6 mph - N/A   Partly Cloudy
2:52 PM 75.9 °F - 57.0 °F 52% 29.95 in 10.0 mi NNE 9.2 mph - N/A   Clear
3:52 PM 78.1 °F - 57.9 °F 50% 29.96 in 10.0 mi North 12.7 mph 18.4 mph 0.00 in   Partly Cloudy
4:52 PM 80.1 °F 80.0 °F 54.0 °F 40% 29.94 in 10.0 mi NE 6.9 mph - N/A   Clear
5:52 PM 79.0 °F - 53.1 °F 40% 29.91 in 10.0 mi SE 5.8 mph - N/A   Clear
6:52 PM 80.1 °F - 51.1 °F 36% 29.90 in 10.0 mi WSW 3.5 mph - N/A   Mostly Cloudy
7:52 PM 78.1 °F - 55.0 °F 45% 29.90 in 10.0 mi Calm Calm - 0.00 in   Scattered Clouds
8:52 PM 77.0 °F - 55.9 °F 48% 29.90 in 10.0 mi West 3.5 mph - N/A   Clear
9:52 PM 71.1 °F - 55.9 °F 59% 29.92 in 10.0 mi NNW 3.5 mph - N/A   Clear
10:52 PM 64.0 °F - 57.0 °F 78% 29.94 in 10.0 mi Calm Calm - N/A   Clear
11:52 PM 61.0 °F - 55.9 °F 83% 29.95 in 10.0 mi Calm Calm - N/A   Clear